Wind_Speed
42 42 43 44 44 44 44 42 36 27 20 15 11 10 11 12 15 19 20 23 28 33 39 43 41 41 41 42 45 47 44 40 38 40 38 34 34 35 37 41 43 44 45 44 43 44 45 46 48 48 47 48 49 50 50 51 53 53 50 49 48 46 44 44 45 44 42 44 46 45 43 41 38 37 37 38 39 37 36 36 36 35 35 34 34
41 42 42 43 43 42 42 39 31 22 16 10 7 11 14 17 21 25 24 25 28 30 35 40 39 38 40 41 44 46 45 42 39 40 41 38 35 36 38 40 41 42 43 45 45 47 48 49 49 50 51 52 53 53 52 52 54 52 48 47 46 45 46 47 46 44 44 45 46 45 42 40 39 38 38 40 41 39 38 38 37 37 37 36 35
41 41 41 42 41 40 39 34 26 18 14 8 11 14 16 19 23 27 25 21 25 27 31 35 36 37 40 41 43 45 46 45 42 41 44 44 41 41 42 43 43 42 43 44 45 46 48 50 52 53 54 55 55 54 54 54 52 49 47 46 46 46 48 48 46 45 46 46 46 44 42 40 39 39 40 42 42 40 39 38 38 38 38 38 37
41 41 40 40 40 38 36 30 22 16 13 11 16 17 18 20 22 25 22 17 24 29 29 31 34 36 38 38 40 44 45 45 43 41 43 44 45 45 44 43 42 42 43 45 46 46 48 49 51 53 54 54 57 58 56 52 48 46 47 47 46 47 48 48 48 47 47 46 44 43 41 40 40 41 42 43 43 42 40 39 38 38 38 39 39
40 40 40 39 38 36 32 27 20 16 13 14 19 20 22 24 23 24 20 20 28 33 30 33 36 37 38 37 36 39 42 42 41 41 43 45 45 43 42 42 44 42 41 43 45 46 47 49 51 54 54 54 57 57 52 47 47 48 49 49 49 49 49 50 51 49 46 45 44 43 41 41 42 43 44 45 45 43 41 40 39 38 38 39 40
40 41 39 38 37 34 29 24 20 17 15 17 21 23 26 27 24 20 19 24 33 34 30 34 40 41 40 39 35 36 39 41 41 40 41 42 42 41 40 42 46 46 43 44 47 48 50 53 54 55 53 53 53 51 49 49 52 53 52 52 52 51 49 50 53 52 47 45 45 45 45 45 46 46 47 48 47 45 43 41 40 40 40 40 41
40 41 39 37 35 32 27 22 20 18 17 19 22 26 30 29 22 17 20 28 35 35 33 35 40 43 43 42 39 38 40 43 45 44 43 42 42 42 42 44 46 48 47 48 49 51 53 54 55 55 53 51 51 52 53 55 57 57 57 55 53 52 52 52 52 51 49 47 47 48 49 49 50 50 50 50 49 47 44 43 42 42 42 43 43
41 41 39 36 34 31 25 21 21 20 19 22 26 31 34 31 21 17 24 32 35 36 36 36 38 40 42 44 43 43 44 46 48 50 50 51 51 49 47 47 48 50 50 50 50 52 54 54 55 55 54 54 55 57 59 60 60 60 59 57 55 54 54 52 51 51 51 51 51 52 53 52 52 52 52 52 52 49 46 45 44 44 45 45 47
41 41 39 36 32 30 25 21 23 23 21 24 29 35 37 33 25 22 28 36 36 36 37 36 36 38 40 44 46 48 48 48 49 52 54 55 56 55 53 50 50 51 51 51 51 53 56 57 59 60 60 61 63 63 64 63 62 61 60 58 57 55 53 52 53 53 54 54 54 55 55 54 53 54 54 55 55 52 49 46 46 46 48 48 49
41 40 39 36 31 30 25 21 25 26 24 24 29 36 39 35 30 28 33 39 39 39 39 36 35 37 39 43 46 48 49 49 49 51 53 53 54 54 53 52 51 50 49 49 50 52 55 58 59 61 62 63 64 64 63 62 61 61 61 61 59 56 54 52 54 55 56 56 57 57 57 56 56 57 58 59 58 55 50 48 47 49 51 52 53
40 39 38 36 31 29 26 22 26 28 26 26 30 36 40 38 33 32 37 42 42 42 42 40 37 37 39 42 45 48 49 49 48 50 51 51 52 53 55 55 54 53 52 52 53 55 57 58 58 58 59 59 60 60 60 60 59 59 59 59 58 57 56 55 56 58 59 59 59 59 58 58 58 60 61 61 60 55 51 50 51 53 55 56 56
40 39 38 37 32 28 26 23 26 30 28 27 30 35 40 39 36 35 40 45 45 44 44 42 39 38 39 41 44 47 49 49 49 51 52 52 52 52 53 54 55 55 55 55 56 57 58 58 58 59 59 58 58 58 57 57 56 56 56 56 56 57 59 59 59 60 61 60 61 61 61 61 61 62 62 61 60 56 53 53 54 56 58 59 59
40 40 39 38 34 30 26 24 26 32 32 30 30 34 38 40 38 37 41 47 48 47 47 44 41 40 40 40 41 43 47 49 49 51 53 54 52 50 49 49 51 52 53 54 55 56 57 58 58 59 59 59 58 58 57 57 56 56 56 57 57 58 60 61 61 61 62 62 63 63 63 63 64 65 64 62 60 57 57 57 57 58 60 62 62
42 42 41 39 37 32 28 25 26 33 35 33 32 34 38 40 40 40 42 46 49 50 51 49 45 43 42 42 42 42 44 47 50 52 54 55 54 53 52 52 53 55 56 56 56 56 57 58 59 60 61 61 61 61 60 60 60 60 61 61 62 62 63 63 64 63 63 63 64 65 64 64 66 67 66 64 60 59 60 61 61 61 62 64 65
45 44 43 42 40 36 31 27 26 32 37 37 35 36 39 41 42 42 43 45 48 50 53 53 50 47 45 44 46 47 47 48 49 51 54 55 56 57 56 56 58 59 60 60 60 60 60 60 60 61 63 64 63 63 62 62 62 63 64 64 65 65 66 66 66 65 65 65 66 67 67 68 69 68 67 64 62 62 63 64 65 65 65 65 66
48 46 46 45 43 41 35 30 27 30 37 41 39 38 40 42 44 44 44 45 47 49 52 53 52 50 49 49 50 51 53 52 51 51 52 53 56 58 58 60 61 60 60 60 60 61 61 60 60 62 64 64 64 64 64 64 64 65 66 66 66 67 67 67 67 66 67 68 69 70 70 70 69 68 67 65 63 64 65 66 67 68 67 66 66
50 49 48 47 46 45 41 35 30 29 35 43 43 41 41 44 46 46 47 47 48 50 52 53 53 51 51 52 54 55 55 55 54 55 55 54 55 57 59 61 62 61 61 61 61 62 63 64 65 66 68 67 66 66 65 66 67 68 68 68 68 69 69 69 69 69 70 71 72 72 71 70 69 68 67 66 66 66 67 68 69 70 69 68 68
53 52 51 50 49 48 46 41 34 30 33 41 47 46 44 45 47 49 50 50 50 51 52 53 55 55 54 54 56 57 58 57 56 57 57 57 56 56 57 59 60 62 63 64 65 66 67 69 69 70 71 71 69 68 68 68 69 71 72 72 71 71 71 71 72 72 73 74 73 72 72 71 70 68 68 68 68 69 70 71 71 72 71 71 70
55 54 53 53 52 51 50 47 41 34 32 37 46 51 50 49 50 51 52 53 54 54 54 54 56 58 59 59 59 59 60 60 59 58 59 59 58 57 57 57 59 62 63 65 66 68 70 72 72 72 73 74 72 71 72 72 72 73 75 75 74 74 74 75 75 75 75 74 74 73 72 71 70 70 70 70 71 72 73 73 74 73 73 72 72
57 56 56 56 55 54 53 52 48 41 35 34 42 51 55 54 53 54 55 56 57 58 58 57 58 60 62 63 63 63 62 62 62 62 61 61 60 60 59 59 60 62 64 65 67 69 71 72 72 73 74 75 75 74 74 74 75 77 78 78 78 78 78 78 78 77 76 75 74 74 73 72 72 72 73 73 74 75 75 76 76 76 75 74 73
59 59 59 58 58 57 57 55 53 48 41 36 37 46 56 59 59 58 58 59 60 61 62 62 61 62 63 65 66 67 66 66 65 65 65 65 64 64 63 63 64 65 65 66 68 71 72 73 73 74 75 76 77 78 78 79 80 81 82 81 80 80 80 80 79 78 77 77 76 76 75 75 75 75 76 76 77 78 78 78 78 78 77 77 76
61 61 61 61 61 60 60 59 57 53 47 42 38 40 50 60 64 63 62 63 63 64 65 66 66 66 66 66 67 68 69 69 69 69 69 70 70 69 69 68 68 68 68 68 69 71 73 74 74 74 76 77 79 80 81 82 82 82 82 81 80 80 80 81 81 80 80 79 79 79 79 79 79 79 80 80 80 80 81 81 80 80 81 81 81
63 63 63 63 63 63 63 62 60 56 51 46 42 40 43 54 64 67 67 67 67 67 68 70 71 71 70 70 70 70 70 70 71 71 72 72 73 73 73 73 73 73 73 73 73 74 75 76 76 77 78 79 79 79 79 80 81 80 80 79 80 80 81 82 83 83 84 84 83 83 83 83 83 83 83 83 83 83 83 84 84 84 84 85 85
65 65 65 66 66 66 66 64 61 57 52 48 45 43 42 46 57 67 71 71 71 71 71 72 73 74 74 74 73 73 73 72 72 72 73 73 73 73 74 74 75 76 76 77 77 77 78 79 80 80 80 80 79 78 78 79 81 81 82 82 82 83 84 85 85 86 86 86 86 85 85 85 85 85 85 85 85 86 86 86 86 87 88 88 88
66 67 68 69 69 68 67 63 59 56 52 49 47 46 44 44 49 60 70 74 75 75 76 75 75 75 76 77 77 77 76 76 76 75 75 74 74 73 73 73 73 74 75 76 77 77 77 78 78 79 79 80 80 80 81 82 83 84 85 86 86 87 87 87 87 87 87 87 88 87 87 86 86 86 87 88 88 89 89 89 89 90 91 91 91
69 70 71 71 70 68 65 61 58 54 52 50 48 47 47 46 46 51 61 72 77 79 79 80 79 78 77 78 80 80 80 79 79 80 80 79 78 77 76 75 74 74 75 75 76 76 76 77 77 78 79 80 81 82 83 84 85 86 87 88 88 88 88 87 87 86 86 87 87 88 88 88 89 89 90 91 91 92 92 92 93 94 95 95 95
72 72 71 70 67 64 61 59 57 54 52 51 49 48 49 49 49 48 53 62 73 79 82 83 84 83 81 80 80 82 83 83 82 82 83 84 84 84 83 82 81 81 81 81 81 81 81 81 81 81 82 84 84 84 84 85 87 87 88 88 89 88 88 88 87 87 87 88 88 89 90 91 92 93 94 95 95 96 96 96 96 97 97 98 97
73 72 69 67 64 62 60 58 56 55 54 52 52 51 51 51 52 52 51 54 62 72 79 83 85 86 86 85 83 83 83 85 85 84 84 84 84 85 86 86 87 87 87 86 87 87 87 88 88 87 87 87 88 88 87 88 89 89 89 90 90 90 90 90 90 91 91 92 92 93 94 94 96 97 98 98 98 98 98 98 98 98 99 99 99
71 69 67 65 63 62 60 59 57 56 56 56 55 55 54 54 54 55 55 54 56 62 70 78 83 86 88 89 88 87 85 86 87 87 87 86 85 85 85 86 87 88 88 88 89 89 89 90 91 91 91 91 91 92 92 92 92 92 92 92 93 93 93 94 94 95 95 96 96 96 97 98 99 100 100 100 99 99 99 99 99 99 100 100 100
67 66 65 65 64 63 62 61 60 59 59 59 59 58 58 57 56 56 57 58 57 58 62 68 75 81 86 89 91 91 90 89 89 89 89 90 89 88 88 87 87 87 88 88 89 89 90 91 92 92 93 93 93 94 95 95 96 96 96 97 97 96 96 97 97 97 97 98 99 99 100 100 100 101 100 100 100 99 99 100 100 100 101 102 102
66 65 65 65 65 65 65 64 64 63 62 61 61 61 60 60 59 58 58 59 59 60 61 63 66 72 77 83 88 91 93 94 93 92 91 92 92 93 93 93 92 91 90 90 90 90 91 92 92 93 94 95 96 96 97 98 98 99 99 100 100 100 100 100 100 100 100 101 101 101 102 102 101 101 101 100 100 100 101 101 102 103 104 104 105
66 66 66 66 66 66 66 66 65 65 64 63 62 62 61 61 60 60 60 60 60 61 62 63 64 66 70 74 79 84 89 93 95 96 96 95 95 95 96 97 97 97 97 96 95 95 95 95 95 95 95 96 96 97 98 99 100 101 102 103 103 103 103 103 104 104 104 104 105 105 105 104 104 104 103 103 103 104 104 105 106 106 107 108 109
67 67 67 67 67 66 66 66 65 65 64 63 62 61 61 61 61 61 61 61 62 62 63 64 65 67 68 70 72 75 79 83 88 92 96 98 99 99 99 100 100 101 102 102 102 102 102 101 101 100 100 99 99 99 99 99 100 101 102 103 103 104 105 105 106 106 107 108 108 108 108 108 107 107 107 107 107 107 107 108 108 109 109 109 110
67 67 67 67 67 66 65 65 64 63 62 61 60 60 60 60 61 61 62 63 63 63 64 65 66 67 69 71 73 74 76 78 80 83 87 91 95 98 100 102 103 104 105 105 106 107 107 108 108 108 107 107 106 106 105 105 104 104 104 103 103 103 103 103 103 104 104 105 106 106 107 107 107 107 107 107 107 107 107 108 108 109 109 110 111
66 66 65 65 64 63 63 62 61 61 60 60 59 59 59 59 60 60 61 63 64 64 65 66 67 68 70 71 73 75 77 79 80 81 83 84 87 89 93 96 99 102 104 106 108 109 110 111 112 112 113 113 113 113 113 112 112 112 112 111 110 109 108 107 106 106 106 105 105 106 106 107 107 107 108 108 108 109 109 110 110 111 112 113 114
62 61 61 60 60 59 59 59 58 58 58 58 58 58 58 58 58 58 59 60 61 63 64 66 67 68 69 71 73 75 76 78 80 82 83 85 85 87 88 90 92 95 98 101 104 107 109 111 112 113 115 115 116 116 116 117 117 117 118 118 118 118 117 116 116 115 115 115 114 114 114 114 114 114 114 115 115 115 116 116 117 117 118 118 118
57 56 56 55 55 55 55 55 56 56 56 57 57 57 58 58 58 58 58 59 60 60 62 63 65 66 68 69 71 72 74 76 78 80 82 83 85 87 88 90 91 92 94 96 99 101 104 106 109 111 113 114 115 116 117 118 118 119 120 120 121 122 122 122 122 122 122 121 121 121 121 121 121 121 121 121 121 121 121 121 121 120 120 120 120
52 52 52 52 52 53 53 53 54 54 55 55 56 56 56 57 57 58 58 59 60 60 61 62 63 64 66 67 69 70 72 73 75 77 78 80 81 83 84 86 88 90 92 94 96 98 100 101 104 106 108 110 112 113 115 116 117 118 118 119 120 121 122 123 124 124 124 124 123 123 123 122 122 122 122 122 121 121 121 121 121 121 121 121 121
50 50 50 50 50 49 49 50 50 50 50 51 51 52 52 53 53 54 55 56 57 58 59 61 62 63 64 65 66 68 69 71 72 74 75 77 78 79 81 82 83 85 87 89 91 94 96 98 99 101 102 104 106 108 110 111 113 114 115 116 117 118 119 120 121 121 122 122 122 122 122 122 122 122 122 122 121 121 121 121 121 121 121 122 122
47 46 46 46 45 45 45 45 45 46 46 47 47 48 49 49 50 51 52 53 54 55 56 57 58 60 61 63 64 66 67 68 70 71 72 74 75 77 78 80 81 83 84 85 87 88 90 92 94 96 97 99 101 102 104 106 107 109 110 111 113 114 115 116 117 118 118 119 120 120 120 121 121 121 121 121 121 121 121 121 121 122 122 122 122
42 42 41 41 42 42 42 43 43 44 45 46 47 47 48 49 49 50 51 51 52 53 54 55 56 57 58 59 61 62 63 65 67 68 70 71 72 73 75 76 78 79 81 83 85 86 87 89 90 91 92 94 95 96 98 100 101 103 104 106 107 109 110 111 112 114 115 116 116 117 118 118 118 119 119 119 119 119 119 120 120 120 120 120 120
38 39 39 40 40 41 42 42 43 43 43 44 44 45 45 45 46 47 47 48 49 50 51 52 53 54 55 56 57 58 60 61 62 64 66 68 69 71 72 73 74 76 77 78 80 82 84 86 87 89 90 91 92 93 94 95 96 97 98 100 101 102 104 105 107 108 109 111 112 113 113 114 114 115 115 115 115 115 115 115 115 115 115 114 114
37 38 38 39 39 40 40 40 41 41 41 41 42 42 42 43 43 44 44 45 45 46 47 48 48 49 50 51 52 54 55 57 58 60 61 63 64 66 67 69 71 72 74 75 76 77 79 80 82 84 85 87 89 90 91 93 94 95 95 96 97 98 99 100 101 102 103 104 105 106 107 108 109 109 109 110 110 110 110 110 110 110 109 109 109
36 36 36 37 37 37 38 39 39 40 40 41 41 42 42 42 43 43 44 44 45 46 47 47 48 48 48 48 48 48 49 51 53 55 57 59 60 62 63 64 65 67 68 70 72 74 75 76 77 79 80 81 83 85 86 87 89 90 91 92 94 95 96 97 98 99 100 101 101 102 103 103 104 105 105 105 106 106 106 106 106 106 106 106 106
33 34 34 34 35 35 36 37 37 38 39 39 40 41 41 42 42 43 43 44 45 46 47 48 49 49 49 49 49 48 47 46 47 48 50 52 55 58 59 61 62 63 63 65 66 68 70 72 73 75 76 77 78 80 81 82 83 84 86 87 88 89 91 92 93 94 95 96 97 98 99 99 100 100 101 101 102 102 102 102 102 102 102 102 102
31 32 32 33 33 34 34 35 36 36 37 37 38 39 40 40 41 42 42 43 44 45 46 47 48 49 50 50 51 51 50 48 47 47 46 47 48 51 53 56 58 59 60 61 62 63 64 65 67 69 71 73 74 76 77 78 79 80 81 82 83 85 86 87 88 89 90 91 92 93 94 94 95 95 96 96 96 96 96 97 97 97 97 96 97
30 31 31 31 32 32 33 33 34 35 35 36 37 37 38 39 40 41 41 42 43 43 44 45 46 47 48 49 50 51 51 51 50 49 48 47 46 46 48 50 52 54 56 58 59 60 61 61 62 63 64 66 68 70 72 74 75 76 78 79 80 81 82 83 84 85 86 87 88 89 89 90 91 91 91 92 92 92 92 92 92 92 92 92 92
29 29 30 30 31 31 32 33 33 34 34 35 35 36 37 38 39 39 40 41 41 42 42 43 45 46 47 47 48 49 50 51 51 51 50 49 47 46 46 46 47 49 51 52 54 56 58 59 60 60 61 62 63 64 66 68 70 71 73 75 76 78 79 80 81 82 83 84 84 85 86 86 87 87 88 88 88 89 89 89 89 89 89 89 89
27 28 29 30 30 31 31 32 33 34 34 35 35 36 37 37 38 39 40 40 41 41 41 42 43 44 45 46 47 48 49 50 50 50 50 49 48 47 46 45 45 46 47 48 50 51 53 55 56 57 58 59 60 61 62 63 65 66 68 69 71 72 74 75 77 78 79 80 81 82 82 83 84 84 85 85 85 85 86 86 86 86 86 86 86
27 27 28 29 30 31 32 33 33 34 35 35 35 36 37 38 38 39 40 40 41 41 42 42 43 43 43 44 46 47 48 48 49 49 49 49 48 47 46 45 45 45 45 45 46 47 49 50 52 53 55 56 57 58 59 60 62 63 64 65 66 68 69 70 72 73 74 75 76 77 78 79 79 80 81 81 81 82 82 82 82 83 82 82 82
27 27 28 29 30 31 32 33 34 35 35 36 36 37 38 39 39 40 40 40 41 42 42 43 43 43 44 44 45 45 46 47 47 47 47 47 47 47 46 45 44 44 43 43 44 44 45 46 48 49 51 52 53 55 56 57 58 59 60 62 63 64 65 66 67 68 69 70 71 72 73 74 75 75 76 76 77 77 78 78 79 79 79 78 78
Wind_Direction
299 302 304 305 306 308 307 308 309 306 301 291 268 236 208 205 210 208 217 230 235 239 231 219 214 215 216 218 216 215 216 216 219 222 226 233 236 233 236 240 243 247 247 246 245 248 252 253 252 253 254 257 262 268 274 277 278 277 275 275 279 284 288 291 295 296 293 294 297 298 296 293 296 303 307 308 306 301 298 298 298 298 297 295 293
301 302 304 305 307 308 307 308 309 305 303 291 232 195 183 189 199 199 204 224 234 234 224 213 212 216 218 220 218 215 215 216 219 221 222 226 229 230 235 240 244 246 247 248 249 248 250 252 254 255 256 259 264 269 273 276 276 275 274 277 282 287 289 292 294 294 293 295 297 296 294 291 294 299 303 306 305 300 297 297 297 297 296 294 292
301 302 304 306 307 309 308 307 307 303 296 259 195 184 182 188 198 197 199 218 226 218 212 212 217 222 223 224 223 219 216 218 221 222 222 226 231 236 242 245 245 243 242 246 251 251 252 254 256 259 261 264 268 271 274 275 272 272 275 280 284 287 289 290 291 292 294 295 294 293 290 289 292 296 301 304 303 298 296 296 297 298 296 294 292
301 302 304 306 307 309 307 305 302 295 282 230 191 182 181 186 193 192 191 208 213 205 204 212 221 224 223 224 226 225 222 222 225 228 228 231 235 239 242 241 240 239 240 245 249 251 254 257 259 261 264 267 269 272 272 270 268 272 279 283 285 286 287 288 289 291 293 292 290 290 288 287 289 294 298 303 302 297 295 295 296 297 297 295 293
300 302 304 306 307 308 306 301 295 285 267 223 195 183 180 183 182 179 186 201 202 199 203 215 221 221 218 218 223 227 227 224 226 230 230 230 233 236 235 232 233 237 240 244 247 249 254 259 261 262 265 268 269 268 266 266 271 278 282 283 284 285 286 287 289 290 290 289 287 286 286 285 287 291 296 300 300 296 293 293 294 296 297 297 295
299 301 304 306 307 308 304 294 286 276 255 219 198 186 180 182 178 177 193 201 196 196 203 214 223 225 219 215 217 223 227 227 227 227 225 225 227 227 224 224 227 231 235 241 247 252 257 261 262 262 264 266 265 262 262 269 277 281 282 284 283 284 286 287 287 288 288 287 284 283 284 284 285 290 294 297 299 296 292 292 293 294 295 297 296
299 300 303 306 306 307 302 286 276 269 248 217 198 189 185 185 182 187 201 198 194 196 199 206 219 228 225 219 217 220 223 227 231 231 229 229 229 225 223 225 229 231 235 242 248 253 257 259 259 261 262 261 260 260 265 273 278 281 282 282 281 283 285 284 284 286 287 287 284 283 285 286 287 290 292 295 297 295 291 290 291 293 294 295 296
298 300 303 305 305 305 299 278 266 264 246 221 203 194 190 189 189 200 203 196 195 199 200 202 212 223 227 223 222 225 224 224 228 232 233 236 237 235 233 233 235 237 240 244 247 249 252 254 255 257 258 258 259 262 267 272 276 278 280 280 279 281 283 282 281 281 283 285 284 284 285 286 287 290 291 294 295 294 290 288 289 292 293 294 296
297 300 302 304 304 304 297 271 257 259 248 228 211 199 194 193 195 203 202 198 199 201 201 203 209 217 225 224 223 227 228 226 226 228 231 235 237 238 239 238 237 238 239 241 242 245 249 252 253 255 256 258 260 263 267 271 273 275 277 278 278 280 280 279 279 279 281 283 284 283 284 286 287 289 291 292 293 293 291 288 288 291 293 295 296
297 300 301 303 302 302 296 269 252 256 250 232 217 205 200 201 204 205 201 200 204 205 203 205 211 216 223 224 223 226 229 230 229 229 231 235 237 239 241 241 240 240 241 242 244 249 253 255 256 257 258 260 262 264 267 269 270 272 273 275 276 276 276 275 277 279 281 283 283 283 283 285 287 288 290 292 292 292 290 288 289 291 293 294 295
296 299 300 302 302 301 297 271 248 251 251 236 221 211 206 208 210 208 204 204 208 209 208 210 215 219 223 225 226 228 229 231 232 231 233 238 241 242 244 245 246 247 248 250 253 256 259 260 260 261 261 262 263 265 266 267 268 269 270 271 272 273 273 274 277 279 281 282 282 282 283 284 286 288 290 292 292 291 290 289 292 293 294 295 294
295 298 299 302 302 300 297 276 247 243 248 240 225 216 211 210 212 209 206 208 211 211 210 214 218 221 224 227 230 233 233 231 231 232 234 238 242 244 246 247 249 250 252 253 255 257 259 260 261 261 261 262 262 263 264 265 266 267 268 269 270 271 273 276 277 278 280 280 280 281 282 283 284 286 289 291 291 290 288 290 293 295 296 295 294
294 297 299 301 303 300 296 281 251 237 242 242 230 220 216 213 212 211 209 210 213 214 213 217 221 224 225 227 231 236 238 235 233 233 234 236 240 244 247 248 249 250 251 252 254 256 258 259 259 259 260 260 261 262 264 264 266 266 267 268 269 271 273 275 276 277 278 279 279 280 281 282 283 286 289 290 289 287 287 289 293 295 295 294 293
293 296 298 299 302 300 296 287 260 237 236 242 234 222 217 214 213 213 211 212 215 218 219 220 224 227 229 229 230 234 238 239 238 239 239 239 241 244 248 251 251 251 252 252 253 255 256 257 258 258 259 260 261 262 264 265 267 268 269 270 271 272 273 274 275 276 276 277 277 278 279 281 284 287 289 289 287 285 286 289 292 293 293 293 293
292 294 296 298 300 300 296 291 271 243 233 237 238 227 219 215 213 213 213 213 216 219 222 224 226 230 232 232 232 233 234 236 238 241 243 245 246 247 250 251 252 252 253 253 254 256 257 258 258 258 258 258 259 261 263 265 267 268 269 270 271 272 273 274 274 274 274 275 276 278 280 282 284 286 287 286 285 285 286 288 290 291 291 292 293
290 292 295 297 298 299 296 292 281 256 235 232 236 233 223 217 216 215 214 214 217 221 224 225 227 230 233 234 233 233 233 233 234 237 240 243 245 247 249 250 251 251 253 254 255 255 256 256 256 256 256 257 258 260 263 265 266 266 266 267 268 269 270 271 271 272 273 275 277 279 280 282 283 284 284 284 283 284 285 287 288 289 290 291 292
290 291 293 295 296 297 297 293 285 269 245 232 231 233 228 221 218 218 217 217 219 222 225 226 227 230 233 236 236 235 236 235 233 234 237 238 240 243 245 248 250 252 253 254 255 256 256 255 255 257 258 259 260 261 262 263 264 264 264 265 266 267 268 270 271 273 275 276 277 278 279 280 281 282 282 282 283 284 284 285 287 288 289 290 291
290 291 292 294 295 295 296 294 288 278 258 239 231 230 230 226 221 220 220 220 221 224 226 228 230 230 233 236 238 238 238 237 236 236 237 238 239 241 243 245 248 250 251 252 254 256 257 257 258 259 261 262 262 263 263 263 264 265 266 267 268 269 270 272 273 275 276 277 277 278 279 279 280 280 281 282 282 283 284 285 286 287 289 290 291
289 290 291 292 293 294 295 295 291 283 269 250 236 230 229 228 225 223 222 222 223 226 228 230 232 233 234 236 238 239 239 239 238 238 239 240 240 242 244 246 248 249 250 250 252 253 255 257 258 260 261 262 263 263 264 265 266 267 268 269 270 271 272 273 274 276 276 276 277 277 278 278 279 280 281 282 282 283 285 286 287 288 288 289 290
288 289 290 291 292 293 294 294 293 288 278 262 245 234 229 228 227 226 226 225 225 226 229 231 233 236 236 237 239 240 241 241 240 240 241 242 243 244 246 248 250 251 252 252 253 254 255 257 259 260 261 263 264 264 265 265 266 267 268 270 271 273 274 275 275 275 275 276 276 277 277 278 280 281 282 282 284 285 286 287 288 288 289 290 291
288 288 289 290 292 293 293 293 293 290 283 272 256 241 232 229 228 227 228 228 228 229 230 232 234 236 237 238 240 241 242 243 243 243 243 244 246 247 248 250 252 253 254 256 257 258 258 259 260 262 263 265 266 267 267 268 268 269 271 272 273 274 275 275 276 276 276 277 278 278 279 280 281 282 283 284 285 285 286 287 288 289 291 292 294
287 288 289 290 290 291 292 292 292 291 286 277 266 252 239 232 229 228 228 228 230 232 233 233 234 236 238 238 239 241 242 244 244 245 246 247 248 249 250 251 252 253 254 255 256 258 260 261 262 262 264 265 267 269 270 271 272 273 274 275 275 276 276 277 278 278 279 279 280 281 282 282 283 284 284 285 286 288 289 291 292 293 294 295 296
286 287 288 289 290 290 291 291 291 289 286 279 270 261 249 238 232 229 228 228 229 231 234 236 236 237 238 239 239 240 241 243 245 246 247 248 249 251 252 253 254 254 255 255 256 257 259 261 262 263 265 266 268 269 270 271 272 273 274 274 275 275 276 277 278 279 280 281 282 283 283 284 285 286 287 288 290 291 292 293 294 294 295 295 296
286 287 287 288 289 290 290 290 289 287 284 279 272 265 258 248 238 233 230 229 229 230 232 235 237 239 239 240 240 240 240 241 243 245 246 248 249 251 252 254 255 256 256 257 258 259 260 262 264 265 266 267 267 268 268 269 270 272 272 273 273 274 275 276 277 278 280 281 282 282 283 284 285 286 288 289 290 291 291 292 292 292 292 293 294
285 286 287 288 289 289 289 288 287 285 282 278 274 267 262 255 246 238 234 232 231 231 231 233 236 238 240 241 242 242 241 241 242 243 245 246 247 249 250 252 253 254 255 256 257 258 259 260 262 263 264 265 266 266 267 267 268 270 271 272 273 273 274 275 276 277 278 279 280 281 282 283 284 285 286 288 289 289 290 290 290 290 290 291 292
285 286 287 287 287 287 287 286 285 283 281 278 274 270 266 262 255 247 239 235 233 233 233 233 234 236 238 240 242 243 243 243 243 244 245 246 246 247 248 249 250 251 252 253 254 255 256 256 258 259 260 261 262 263 264 265 266 267 269 270 271 272 273 273 274 275 276 277 278 280 281 282 283 284 285 286 287 287 287 287 288 288 289 290 291
286 286 286 286 286 285 285 284 283 282 281 278 275 272 269 267 263 257 248 241 236 235 235 235 235 236 236 238 239 241 243 244 245 245 246 248 248 249 249 250 251 252 252 253 254 254 255 255 256 257 258 259 260 261 262 263 264 265 266 267 268 269 270 271 272 273 274 276 277 278 279 281 282 283 284 285 286 286 286 286 287 287 288 289 290
286 286 285 285 284 284 283 283 283 282 280 279 277 274 272 270 268 265 259 251 243 238 237 237 237 237 237 238 238 239 241 242 244 245 245 246 248 249 250 251 252 253 254 254 255 255 256 257 257 257 257 258 259 260 260 261 262 263 264 265 266 267 268 269 270 271 272 273 275 276 277 279 280 282 283 284 284 284 285 285 286 287 288 289 290
285 285 284 284 284 284 283 283 282 282 281 280 278 277 274 272 269 267 265 260 253 245 241 239 239 240 240 240 240 240 240 241 242 243 244 245 246 247 248 249 251 252 253 254 254 255 256 256 257 258 258 259 259 259 260 261 262 262 263 264 265 266 267 268 269 270 271 273 274 275 276 277 279 280 281 281 282 283 283 284 285 286 286 287 288
283 283 283 283 283 284 284 283 283 282 281 280 279 277 276 274 271 268 266 264 261 255 249 243 241 241 242 242 242 242 242 242 242 243 244 244 245 246 246 247 248 249 250 251 252 253 253 254 255 256 257 258 258 258 259 260 261 262 262 263 264 265 266 267 268 270 271 272 273 275 276 277 278 279 279 280 280 281 282 282 283 284 284 285 286
281 282 282 282 283 283 283 283 283 282 281 280 278 277 276 274 272 270 267 265 263 261 257 252 248 245 243 244 244 244 245 245 245 244 244 244 245 246 246 247 247 247 248 248 249 250 251 252 253 254 255 256 257 257 258 259 259 260 261 262 262 263 265 266 267 268 270 271 272 274 275 276 276 277 278 278 279 279 280 281 281 282 283 283 284
281 282 282 282 282 282 282 282 282 282 281 280 279 277 276 274 273 271 269 267 264 262 260 258 255 252 249 247 246 246 246 247 247 247 247 247 247 246 247 247 248 248 248 249 249 250 250 251 251 252 253 254 255 256 257 258 259 260 261 261 262 263 264 265 266 267 268 269 271 272 273 273 274 275 276 276 277 278 278 279 280 280 281 282 282
282 282 282 282 282 282 282 282 282 281 281 280 279 277 276 274 273 271 270 268 266 264 262 260 258 257 255 253 251 250 250 249 249 249 249 249 249 249 249 249 249 249 249 250 250 251 251 251 252 252 253 254 255 255 256 257 258 259 260 261 262 263 264 265 265 266 268 269 270 270 271 272 273 273 274 275 275 276 277 278 278 279 280 280 281
283 283 283 283 283 283 283 283 282 282 281 280 279 278 276 275 273 272 271 269 268 266 264 262 260 259 258 256 255 254 254 253 253 252 252 251 251 251 251 251 251 251 251 251 251 252 252 252 253 253 254 254 255 256 256 257 258 258 259 260 260 261 262 263 265 266 267 268 268 269 270 271 272 272 273 274 274 275 276 276 277 278 279 279 280
282 283 283 283 283 283 283 283 283 283 282 282 281 279 278 276 275 273 272 271 270 269 267 266 264 262 260 259 258 257 257 256 256 256 255 255 254 254 253 253 253 253 253 253 253 253 253 253 254 254 255 255 255 256 256 257 258 259 260 261 261 261 262 262 264 265 266 267 268 269 269 270 271 272 272 273 274 274 275 276 276 278 279 280 281
282 282 282 282 282 283 283 283 283 282 282 282 281 280 279 278 277 276 274 273 271 270 269 268 267 266 264 263 261 260 259 259 258 258 258 258 257 257 256 256 255 255 255 255 255 255 255 255 255 255 256 256 256 257 257 257 258 259 260 261 262 262 263 263 264 264 265 267 268 269 270 271 272 273 274 275 275 276 277 277 278 279 280 281 282
281 282 282 282 282 282 283 282 282 282 282 282 281 281 280 280 279 278 277 275 274 272 271 270 269 268 267 266 264 263 262 261 261 260 259 259 259 258 258 258 257 257 256 256 256 256 256 256 256 256 256 257 257 258 258 259 259 259 260 260 261 262 263 264 264 265 266 267 267 268 270 271 272 273 274 275 276 277 278 278 279 280 281 281 282
281 282 282 282 282 282 282 282 282 282 282 282 281 281 281 280 280 279 279 278 277 276 274 273 271 270 269 268 267 266 265 264 263 263 262 261 261 260 259 259 259 258 258 257 257 257 257 257 257 257 257 257 258 258 259 259 260 260 261 261 262 262 263 264 265 265 266 267 267 268 269 270 271 272 273 274 275 276 277 278 279 279 280 281 282
282 282 282 282 283 283 282 282 282 282 282 282 281 281 281 280 280 279 279 278 277 277 276 275 274 273 272 271 270 269 268 267 266 265 264 263 262 262 261 261 260 259 259 259 258 258 258 258 258 258 258 258 258 259 259 260 260 261 261 262 263 263 264 265 266 266 267 268 268 269 269 270 271 272 272 273 274 275 276 277 278 278 279 280 281
283 283 283 283 284 284 284 284 285 285 285 285 284 284 284 283 282 282 281 280 279 278 277 276 275 274 274 273 272 271 271 270 269 268 267 266 265 264 263 262 261 261 261 260 260 260 260 260 260 260 260 260 260 260 260 261 261 261 262 262 263 263 264 265 266 267 267 268 269 270 270 271 271 272 273 273 274 275 275 276 277 278 278 279 280
284 284 285 286 287 287 287 288 288 288 287 287 287 286 286 286 285 284 284 283 282 282 281 280 279 278 276 275 274 273 272 271 270 270 269 269 268 267 266 265 264 263 262 262 261 261 261 261 261 261 261 261 262 262 262 262 262 262 263 263 263 264 264 265 265 266 267 268 268 269 270 271 271 272 273 273 274 275 275 276 276 277 278 279 279
287 288 289 289 289 290 290 289 289 289 289 288 288 288 287 287 286 286 285 284 283 282 282 281 281 280 279 279 278 277 276 274 273 272 270 270 269 268 268 267 267 266 265 264 263 263 262 262 262 262 262 262 262 262 262 263 263 263 264 264 264 265 265 265 266 266 267 267 268 269 269 270 271 272 272 273 274 275 275 276 277 277 278 279 280
289 290 291 291 292 293 293 294 294 294 295 295 295 294 294 294 293 293 292 291 291 289 288 286 284 283 281 280 279 278 278 277 276 275 274 273 271 270 269 268 267 267 267 266 266 265 264 264 263 263 263 263 263 263 263 263 263 263 263 264 264 264 265 265 266 266 267 267 268 268 269 270 270 271 272 273 273 274 275 276 276 277 278 279 280
290 291 293 294 295 296 297 298 299 299 299 299 299 299 299 299 299 299 299 298 298 298 297 296 294 292 290 288 285 282 280 278 277 276 276 275 275 274 272 271 269 268 267 266 266 266 266 265 265 264 264 264 263 263 263 263 263 263 264 264 264 264 265 265 265 266 266 267 267 268 268 269 270 270 271 272 273 273 274 275 276 277 278 279 280
291 293 294 295 296 296 297 298 298 299 299 300 300 300 300 300 301 301 301 301 301 301 301 300 300 300 299 297 295 293 289 286 283 280 278 276 276 276 275 275 274 272 271 269 267 266 265 265 265 265 265 265 265 264 264 264 264 264 264 264 264 264 265 265 265 266 266 267 267 268 268 269 270 270 271 272 272 273 274 275 276 277 277 278 279
291 292 293 293 294 294 295 296 297 297 298 299 299 300 300 301 301 301 301 301 302 301 301 301 301 302 302 302 301 300 299 296 293 290 286 282 279 277 276 276 275 275 274 273 272 270 268 267 266 265 265 265 265 265 265 265 265 265 265 265 265 265 265 265 266 266 267 267 268 268 269 270 270 271 272 272 273 274 274 275 276 277 278 278 279
290 290 291 292 293 294 295 296 296 298 299 299 300 301 302 302 302 302 302 302 303 303 302 303 302 302 302 302 302 302 302 301 300 299 296 292 288 284 281 279 277 276 275 275 274 273 273 271 270 268 267 265 265 264 264 264 265 265 265 265 265 266 266 266 266 267 267 267 268 269 269 270 271 272 272 273 274 274 275 276 277 277 278 279 280
289 290 291 292 294 295 297 298 299 300 301 302 303 304 304 304 304 304 304 304 304 304 304 304 304 304 304 304 304 303 303 303 302 302 300 299 296 292 288 285 281 279 277 276 275 274 273 273 272 271 270 269 268 266 265 265 264 264 264 264 265 265 265 266 266 267 267 268 268 269 270 270 271 272 273 273 274 275 276 276 277 278 278 279 280
289 291 293 295 297 299 300 302 303 304 305 306 307 307 308 308 307 307 307 307 307 307 307 307 307 306 306 306 306 306 305 305 304 303 303 301 300 298 295 291 287 284 281 279 278 276 275 274 273 272 272 271 270 269 268 267 267 266 265 265 265 265 265 265 266 266 267 267 268 269 269 270 271 271 272 273 274 274 275 276 277 277 278 279 279
291 294 296 299 301 303 305 306 307 308 309 310 311 311 311 311 311 311 312 312 312 312 312 311 311 311 310 310 310 309 308 307 306 305 305 304 303 301 299 296 293 290 287 285 282 280 278 277 275 274 273 272 272 271 270 270 269 268 268 267 267 267 267 267 267 267 267 267 268 268 269 269 270 271 272 272 273 274 275 275 276 277 278 279 280
296 299 302 304 305 307 308 309 310 312 312 314 314 315 315 315 315 315 315 315 316 316 316 316 316 315 315 314 313 313 312 311 309 308 306 305 304 303 301 299 297 295 292 290 288 285 283 281 279 277 276 275 274 273 272 271 271 270 270 269 269 269 269 269 269 269 269 269 269 269 269 270 270 271 272 272 273 274 275 275 276 277 278 279 280
Height
10633 10631 10629 10626 10624 10620 10616 10613 10611 10609 10608 10607 10608 10609 10613 10618 10622 10627 10632 10636 10637 10637 10640 10645 10651 10655 10658 10659 10661 10663 10665 10668 10669 10670 10672 10674 10675 10676 10677 10678 10677 10678 10679 10681 10683 10683 10684 10685 10684 10685 10686 10686 10686 10686 10686 10685 10683 10682 10681 10680 10680 10679 10677 10676 10675 10674 10672 10669 10668 10668 10668 10667 10666 10665 10663 10662 10660 10658 10657 10655 10654 10652 10651 10649 10647
10629 10627 10625 10622 10620 10617 10613 10610 10608 10607 10606 10606 10607 10607 10607 10610 10615 10619 10626 10632 10635 10638 10642 10647 10651 10654 10655 10656 10657 10659 10662 10663 10664 10665 10667 10668 10669 10671 10671 10671 10671 10671 10673 10675 10677 10679 10680 10680 10680 10680 10681 10681 10681 10682 10682 10681 10679 10678 10677 10675 10674 10673 10671 10671 10671 10669 10668 10666 10664 10663 10663 10662 10662 10660 10659 10658 10657 10655 10653 10652 10650 10649 10647 10645 10644
10625 10623 10621 10619 10616 10614 10610 10608 10606 10605 10605 10605 10605 10605 10605 10609 10613 10617 10622 10629 10635 10640 10644 10648 10650 10650 10652 10652 10653 10655 10657 10658 10659 10660 10662 10662 10663 10665 10666 10666 10665 10665 10667 10669 10672 10674 10674 10675 10675 10675 10676 10676 10676 10676 10677 10676 10675 10673 10672 10670 10669 10668 10665 10665 10666 10665 10664 10663 10661 10659 10658 10658 10657 10656 10655 10654 10653 10652 10650 10648 10647 10645 10643 10641 10639
10621 10619 10618 10616 10613 10611 10608 10605 10604 10604 10604 10605 10604 10604 10605 10609 10613 10617 10621 10627 10634 10640 10645 10646 10646 10647 10649 10650 10650 10651 10652 10655 10656 10656 10657 10657 10658 10659 10660 10661 10660 10660 10663 10665 10666 10668 10669 10670 10671 10671 10671 10672 10671 10671 10671 10671 10670 10668 10666 10664 10664 10663 10660 10658 10660 10661 10660 10658 10656 10655 10654 10653 10652 10651 10650 10650 10648 10647 10646 10644 10643 10641 10639 10637 10635
10617 10616 10614 10613 10610 10608 10605 10603 10602 10602 10603 10604 10604 10603 10604 10608 10611 10613 10618 10623 10629 10635 10641 10642 10642 10643 10645 10646 10647 10647 10649 10651 10652 10652 10653 10652 10652 10653 10655 10656 10655 10656 10660 10661 10661 10662 10664 10666 10666 10666 10667 10667 10666 10666 10667 10666 10664 10662 10660 10658 10658 10658 10656 10654 10653 10654 10655 10654 10651 10650 10649 10649 10648 10647 10646 10645 10644 10643 10642 10640 10639 10637 10635 10633 10630
10614 10612 10611 10610 10607 10605 10603 10601 10600 10601 10602 10602 10603 10603 10604 10607 10609 10610 10613 10618 10622 10627 10633 10636 10636 10637 10640 10642 10643 10643 10645 10646 10647 10648 10648 10647 10646 10647 10649 10650 10650 10653 10655 10656 10657 10658 10659 10660 10660 10661 10662 10662 10662 10661 10662 10661 10658 10656 10655 10654 10652 10652 10652 10650 10646 10645 10648 10649 10647 10645 10645 10644 10644 10643 10642 10641 10639 10638 10637 10635 10634 10632 10630 10628 10626
10610 10609 10608 10607 10604 10602 10601 10599 10598 10599 10600 10600 10601 10602 10603 10605 10607 10607 10609 10614 10617 10620 10624 10627 10629 10632 10635 10637 10639 10640 10640 10640 10641 10643 10643 10642 10640 10641 10643 10645 10647 10650 10652 10653 10655 10655 10654 10654 10654 10654 10656 10657 10657 10656 10657 10656 10653 10650 10650 10650 10647 10647 10647 10645 10642 10640 10640 10642 10642 10640 10640 10640 10639 10638 10638 10636 10635 10633 10632 10630 10628 10626 10624 10623 10620
10606 10605 10604 10603 10601 10599 10598 10597 10596 10597 10598 10598 10599 10599 10600 10602 10604 10604 10606 10609 10613 10616 10618 10621 10623 10626 10628 10631 10633 10634 10633 10633 10635 10637 10637 10636 10635 10636 10638 10641 10644 10646 10649 10651 10653 10651 10649 10648 10648 10648 10650 10651 10651 10651 10651 10651 10649 10645 10645 10645 10642 10642 10641 10639 10638 10637 10635 10636 10635 10634 10633 10634 10634 10633 10632 10631 10630 10628 10627 10625 10623 10620 10618 10616 10614
10602 10601 10600 10599 10598 10596 10595 10594 10594 10594 10595 10596 10597 10596 10597 10599 10600 10601 10602 10605 10609 10612 10615 10617 10619 10620 10621 10623 10626 10626 10625 10626 10629 10631 10631 10630 10630 10631 10634 10636 10638 10641 10644 10647 10648 10646 10643 10642 10642 10643 10644 10645 10645 10645 10645 10646 10644 10641 10641 10639 10636 10636 10636 10633 10632 10632 10630 10630 10629 10627 10626 10628 10628 10626 10626 10626 10624 10623 10621 10619 10617 10614 10611 10610 10609
10598 10597 10596 10596 10594 10593 10592 10591 10591 10591 10592 10593 10594 10595 10595 10596 10597 10598 10599 10601 10604 10607 10610 10613 10614 10615 10615 10616 10618 10619 10620 10621 10623 10625 10625 10624 10625 10627 10629 10630 10633 10636 10638 10641 10643 10641 10638 10637 10637 10638 10639 10639 10639 10640 10640 10640 10639 10637 10637 10634 10631 10630 10629 10628 10627 10625 10625 10625 10623 10621 10620 10622 10622 10619 10618 10619 10618 10617 10614 10612 10610 10608 10605 10604 10603
10595 10593 10592 10592 10591 10590 10589 10588 10588 10587 10588 10590 10591 10592 10592 10593 10594 10595 10596 10598 10600 10602 10605 10608 10609 10609 10609 10610 10612 10612 10613 10615 10617 10618 10619 10619 10620 10622 10623 10625 10628 10630 10632 10634 10635 10635 10633 10632 10632 10633 10633 10633 10633 10633 10634 10633 10633 10632 10632 10630 10628 10625 10622 10623 10623 10620 10620 10619 10617 10615 10615 10616 10615 10613 10611 10611 10609 10609 10607 10604 10602 10601 10598 10596 10595
10591 10589 10588 10587 10587 10587 10585 10584 10584 10584 10584 10586 10587 10588 10589 10590 10591 10592 10593 10594 10596 10598 10600 10601 10602 10603 10603 10604 10606 10606 10608 10610 10611 10612 10613 10614 10614 10616 10618 10620 10622 10623 10625 10626 10627 10627 10626 10625 10626 10627 10626 10627 10627 10627 10627 10627 10626 10626 10626 10625 10624 10621 10617 10618 10618 10616 10615 10614 10611 10610 10610 10610 10609 10607 10606 10605 10602 10600 10599 10596 10595 10594 10591 10587 10584
10586 10585 10584 10583 10583 10583 10582 10581 10580 10580 10581 10581 10583 10585 10585 10586 10587 10588 10589 10591 10592 10594 10595 10595 10596 10596 10597 10599 10601 10602 10603 10605 10605 10606 10607 10608 10609 10610 10612 10613 10615 10616 10617 10618 10618 10619 10618 10618 10618 10619 10619 10620 10620 10620 10620 10620 10620 10620 10619 10618 10618 10616 10614 10613 10613 10612 10611 10609 10606 10605 10604 10603 10602 10600 10601 10601 10598 10593 10591 10590 10590 10588 10585 10579 10575
10581 10580 10579 10579 10578 10578 10578 10577 10576 10576 10577 10577 10578 10580 10581 10582 10582 10583 10585 10587 10588 10589 10589 10589 10589 10590 10592 10594 10595 10596 10597 10597 10598 10599 10600 10602 10603 10604 10605 10606 10606 10607 10608 10609 10610 10610 10610 10610 10611 10612 10612 10612 10613 10613 10614 10614 10614 10613 10612 10611 10611 10610 10609 10608 10608 10607 10606 10604 10601 10599 10598 10598 10596 10594 10594 10594 10592 10587 10583 10583 10583 10581 10578 10573 10568
10576 10575 10574 10573 10573 10573 10573 10573 10572 10572 10572 10573 10573 10575 10576 10577 10577 10578 10580 10581 10582 10583 10583 10584 10585 10586 10586 10587 10588 10588 10588 10590 10592 10592 10593 10595 10596 10598 10598 10597 10596 10597 10598 10600 10601 10602 10603 10604 10605 10604 10603 10603 10605 10606 10607 10607 10607 10605 10604 10604 10603 10603 10602 10602 10601 10601 10600 10598 10595 10593 10592 10592 10590 10588 10587 10587 10585 10582 10578 10576 10575 10573 10570 10566 10562
10570 10570 10569 10568 10567 10567 10568 10568 10567 10567 10567 10568 10568 10569 10571 10572 10573 10573 10574 10575 10576 10577 10577 10579 10580 10581 10581 10580 10580 10579 10580 10583 10586 10586 10587 10588 10588 10590 10590 10587 10587 10589 10591 10592 10594 10595 10595 10596 10597 10594 10593 10594 10598 10600 10601 10601 10600 10597 10595 10596 10596 10595 10595 10595 10594 10593 10593 10591 10589 10587 10586 10585 10583 10582 10581 10580 10579 10577 10573 10570 10568 10565 10563 10560 10557
10564 10563 10563 10563 10562 10561 10562 10562 10563 10562 10562 10562 10563 10564 10565 10566 10567 10568 10569 10569 10570 10570 10571 10573 10574 10575 10575 10574 10574 10573 10573 10576 10579 10579 10579 10580 10580 10581 10581 10580 10580 10583 10585 10585 10585 10585 10586 10586 10587 10585 10584 10586 10590 10592 10593 10593 10590 10587 10587 10587 10587 10587 10586 10587 10586 10585 10585 10583 10582 10580 10579 10578 10577 10575 10574 10573 10571 10570 10567 10564 10560 10557 10555 10553 10552
10557 10557 10557 10557 10556 10555 10555 10555 10557 10557 10556 10556 10557 10558 10559 10560 10561 10562 10563 10563 10564 10564 10565 10566 10567 10568 10568 10568 10568 10567 10568 10571 10572 10572 10572 10572 10572 10573 10573 10574 10575 10575 10576 10577 10577 10576 10575 10575 10576 10576 10574 10576 10581 10583 10583 10582 10580 10577 10576 10577 10578 10578 10578 10577 10577 10576 10576 10575 10573 10572 10571 10570 10569 10567 10566 10565 10563 10561 10559 10556 10553 10550 10547 10545 10544
10550 10550 10550 10549 10549 10549 10548 10548 10549 10550 10551 10550 10550 10551 10552 10553 10554 10555 10556 10557 10557 10557 10558 10559 10560 10561 10561 10561 10561 10561 10562 10564 10565 10566 10566 10565 10565 10566 10566 10567 10567 10567 10567 10568 10568 10567 10566 10564 10566 10567 10565 10565 10569 10572 10572 10572 10570 10567 10565 10566 10567 10568 10568 10568 10567 10567 10566 10565 10564 10563 10562 10561 10559 10558 10557 10555 10553 10551 10549 10546 10544 10541 10539 10537 10535
10543 10542 10542 10542 10542 10542 10541 10541 10541 10542 10544 10544 10544 10544 10545 10546 10547 10548 10549 10550 10550 10550 10551 10552 10552 10553 10554 10554 10554 10554 10555 10557 10558 10559 10559 10559 10559 10560 10560 10560 10560 10559 10558 10559 10558 10557 10557 10556 10557 10558 10556 10555 10557 10560 10561 10561 10559 10557 10556 10556 10557 10557 10557 10557 10556 10556 10556 10554 10553 10553 10552 10551 10549 10548 10546 10544 10542 10540 10538 10536 10534 10531 10529 10528 10526
10535 10535 10534 10534 10534 10534 10534 10533 10533 10534 10535 10536 10536 10536 10537 10538 10539 10540 10541 10542 10543 10544 10544 10544 10544 10544 10545 10546 10547 10547 10548 10549 10550 10551 10552 10552 10552 10552 10553 10553 10552 10551 10551 10550 10549 10548 10548 10548 10548 10549 10547 10545 10545 10546 10547 10547 10547 10547 10547 10547 10547 10547 10546 10545 10544 10544 10544 10543 10541 10541 10540 10539 10538 10536 10535 10533 10531 10529 10527 10526 10524 10521 10519 10516 10514
10528 10527 10527 10526 10526 10525 10525 10525 10525 10525 10526 10527 10528 10528 10528 10529 10530 10531 10533 10534 10535 10536 10536 10536 10536 10536 10536 10538 10539 10540 10540 10541 10542 10543 10544 10544 10544 10544 10545 10544 10544 10544 10543 10542 10541 10539 10537 10537 10539 10539 10538 10536 10534 10534 10534 10534 10534 10534 10534 10535 10535 10535 10533 10532 10531 10531 10530 10529 10528 10528 10527 10526 10525 10524 10523 10521 10519 10518 10515 10513 10511 10509 10506 10504 10502
10520 10519 10519 10518 10517 10517 10516 10516 10516 10517 10517 10517 10518 10519 10520 10520 10521 10522 10524 10525 10526 10528 10528 10528 10529 10528 10528 10529 10530 10531 10532 10533 10533 10534 10535 10535 10535 10536 10536 10536 10536 10535 10535 10534 10533 10531 10529 10528 10528 10528 10527 10527 10525 10524 10523 10522 10521 10521 10522 10522 10523 10522 10521 10520 10519 10517 10516 10515 10515 10514 10513 10512 10511 10510 10509 10507 10506 10504 10502 10499 10497 10496 10494 10492 10491
10512 10511 10510 10510 10509 10508 10508 10507 10507 10508 10508 10508 10509 10510 10510 10511 10511 10513 10514 10515 10516 10518 10519 10519 10520 10520 10520 10520 10520 10522 10523 10524 10524 10525 10526 10526 10526 10527 10527 10527 10526 10526 10526 10525 10524 10523 10522 10520 10518 10517 10517 10517 10516 10516 10515 10513 10512 10511 10511 10511 10511 10511 10510 10509 10508 10506 10505 10503 10503 10502 10501 10500 10498 10497 10495 10494 10492 10491 10489 10487 10486 10484 10483 10482 10480
10504 10503 10502 10501 10500 10499 10499 10498 10498 10498 10498 10499 10499 10500 10501 10502 10502 10503 10504 10505 10507 10508 10508 10509 10510 10511 10512 10512 10511 10512 10513 10514 10515 10515 10516 10517 10517 10517 10517 10517 10517 10517 10516 10516 10515 10514 10513 10511 10510 10508 10507 10506 10506 10506 10506 10505 10503 10502 10501 10500 10500 10500 10499 10499 10498 10497 10495 10493 10491 10490 10489 10488 10487 10486 10485 10483 10482 10481 10479 10477 10475 10473 10472 10471 10470
10496 10495 10493 10492 10491 10490 10490 10489 10489 10489 10489 10489 10490 10490 10491 10492 10493 10494 10494 10495 10496 10497 10498 10498 10499 10500 10501 10502 10502 10502 10503 10503 10504 10505 10505 10506 10507 10507 10508 10508 10508 10507 10507 10506 10505 10504 10503 10502 10501 10500 10498 10497 10496 10496 10496 10495 10494 10493 10492 10491 10490 10489 10489 10488 10487 10486 10485 10483 10481 10479 10478 10477 10476 10475 10474 10473 10472 10470 10469 10467 10464 10462 10460 10459 10459
10487 10486 10484 10483 10482 10481 10481 10480 10480 10480 10480 10480 10480 10481 10481 10482 10483 10484 10485 10485 10486 10486 10487 10488 10488 10489 10490 10491 10492 10492 10493 10493 10494 10494 10494 10495 10496 10496 10497 10498 10498 10497 10497 10497 10496 10495 10494 10493 10492 10491 10490 10488 10487 10487 10487 10486 10484 10484 10483 10482 10481 10480 10479 10479 10478 10476 10475 10473 10471 10470 10468 10467 10466 10464 10463 10463 10462 10460 10458 10456 10454 10452 10449 10447 10446
10477 10476 10475 10474 10473 10472 10472 10472 10471 10471 10471 10471 10471 10471 10471 10472 10472 10473 10474 10475 10476 10476 10476 10477 10477 10478 10479 10480 10481 10482 10482 10483 10483 10484 10484 10484 10485 10485 10486 10486 10487 10487 10487 10486 10486 10485 10484 10483 10482 10481 10480 10479 10479 10478 10477 10476 10475 10474 10473 10472 10472 10471 10470 10469 10468 10467 10466 10464 10463 10462 10460 10458 10457 10455 10453 10452 10450 10448 10446 10444 10443 10441 10438 10436 10435
10467 10466 10465 10464 10464 10463 10463 10463 10463 10462 10462 10461 10461 10461 10461 10461 10462 10462 10462 10463 10465 10465 10466 10466 10467 10467 10468 10469 10470 10470 10471 10472 10472 10473 10474 10474 10475 10475 10475 10475 10475 10475 10476 10475 10475 10474 10473 10472 10471 10470 10470 10469 10469 10468 10467 10466 10465 10464 10463 10463 10462 10460 10459 10459 10458 10456 10455 10454 10453 10452 10451 10449 10448 10446 10444 10442 10440 10438 10436 10434 10432 10430 10428 10426 10424
10459 10458 10457 10456 10455 10454 10454 10454 10453 10453 10453 10452 10451 10451 10451 10451 10451 10451 10452 10452 10453 10454 10454 10455 10456 10456 10457 10458 10458 10459 10459 10460 10461 10462 10463 10464 10464 10464 10465 10465 10465 10464 10464 10464 10464 10463 10462 10461 10460 10459 10459 10458 10457 10457 10456 10455 10454 10454 10453 10452 10451 10450 10449 10448 10447 10446 10445 10443 10442 10440 10439 10438 10437 10435 10433 10431 10430 10428 10426 10424 10422 10420 10418 10416 10414
10451 10450 10449 10448 10447 10446 10445 10444 10444 10443 10443 10442 10441 10441 10440 10440 10440 10440 10441 10441 10442 10442 10443 10443 10444 10445 10446 10447 10447 10447 10447 10448 10449 10450 10451 10451 10452 10453 10453 10453 10453 10454 10453 10453 10452 10452 10451 10450 10449 10448 10447 10446 10446 10446 10445 10444 10443 10442 10441 10441 10440 10440 10439 10438 10437 10436 10434 10432 10430 10429 10428 10426 10425 10423 10422 10421 10419 10418 10416 10414 10412 10409 10407 10406 10403
10443 10442 10441 10440 10438 10437 10436 10435 10434 10433 10432 10432 10431 10430 10430 10429 10429 10429 10430 10430 10430 10431 10431 10432 10433 10433 10434 10435 10435 10436 10436 10436 10436 10437 10438 10439 10439 10440 10440 10441 10441 10442 10442 10441 10441 10440 10440 10439 10438 10437 10436 10435 10434 10434 10433 10432 10432 10431 10430 10429 10429 10429 10428 10428 10427 10425 10424 10422 10420 10418 10417 10415 10414 10413 10411 10410 10409 10407 10405 10403 10400 10398 10397 10395 10391
10434 10432 10431 10430 10429 10428 10426 10425 10424 10423 10422 10421 10420 10420 10419 10419 10418 10418 10418 10418 10419 10419 10419 10420 10421 10421 10422 10423 10423 10424 10424 10424 10424 10425 10425 10426 10426 10427 10427 10427 10428 10428 10429 10429 10428 10428 10427 10427 10426 10425 10425 10424 10423 10422 10421 10420 10420 10419 10418 10417 10417 10417 10416 10416 10415 10414 10412 10411 10409 10407 10405 10403 10402 10401 10400 10399 10398 10396 10393 10391 10388 10386 10385 10383 10380
10425 10423 10422 10420 10419 10418 10416 10415 10414 10413 10411 10411 10410 10409 10409 10408 10408 10407 10407 10407 10407 10407 10408 10408 10408 10409 10409 10409 10410 10410 10410 10411 10411 10411 10411 10412 10412 10413 10413 10414 10414 10414 10414 10415 10414 10414 10413 10413 10413 10412 10412 10411 10411 10410 10409 10409 10408 10406 10406 10405 10405 10405 10405 10404 10403 10402 10400 10399 10397 10395 10393 10391 10390 10388 10387 10386 10385 10383 10381 10379 10376 10374 10372 10370 10368
10416 10414 10413 10411 10410 10408 10407 10406 10404 10403 10402 10401 10400 10399 10398 10398 10398 10397 10397 10396 10396 10396 10396 10396 10396 10396 10396 10396 10396 10396 10396 10396 10396 10396 10396 10397 10397 10397 10398 10398 10398 10399 10399 10399 10399 10399 10399 10399 10399 10398 10397 10397 10397 10397 10397 10396 10395 10394 10393 10392 10392 10392 10393 10392 10391 10390 10388 10387 10385 10384 10382 10380 10378 10376 10375 10374 10373 10371 10369 10367 10365 10363 10361 10358 10356
10408 10406 10405 10403 10402 10400 10399 10397 10396 10394 10393 10392 10391 10390 10389 10388 10388 10387 10387 10386 10386 10385 10384 10384 10383 10383 10383 10383 10383 10383 10382 10382 10382 10382 10381 10381 10381 10382 10382 10382 10382 10383 10383 10383 10383 10383 10383 10383 10383 10383 10382 10382 10382 10382 10382 10382 10381 10381 10380 10379 10378 10378 10378 10378 10378 10377 10376 10375 10373 10372 10370 10368 10366 10364 10363 10361 10359 10358 10356 10354 10353 10351 10349 10346 10344
10400 10399 10397 10396 10394 10393 10391 10390 10388 10386 10385 10383 10382 10381 10380 10379 10378 10377 10376 10376 10375 10374 10374 10373 10372 10371 10371 10370 10370 10369 10369 10368 10368 10367 10367 10367 10367 10367 10367 10367 10366 10367 10367 10366 10366 10366 10366 10366 10366 10366 10367 10366 10366 10367 10367 10367 10366 10366 10366 10365 10364 10363 10363 10363 10363 10363 10362 10361 10360 10359 10358 10356 10354 10352 10350 10348 10346 10344 10343 10341 10339 10337 10335 10333 10331
10393 10392 10390 10389 10387 10386 10384 10382 10381 10379 10377 10376 10374 10373 10371 10370 10369 10368 10367 10365 10364 10363 10362 10361 10360 10360 10359 10358 10357 10356 10355 10354 10354 10353 10352 10352 10352 10352 10352 10352 10351 10351 10351 10350 10350 10350 10350 10350 10350 10350 10350 10350 10350 10351 10351 10351 10351 10351 10351 10350 10350 10349 10348 10348 10347 10347 10347 10347 10346 10345 10344 10342 10341 10339 10337 10335 10333 10332 10330 10328 10326 10324 10322 10319 10317
10387 10385 10384 10382 10380 10379 10377 10375 10374 10372 10370 10368 10367 10365 10364 10362 10361 10359 10358 10356 10355 10353 10352 10350 10349 10348 10347 10346 10345 10343 10342 10341 10341 10340 10339 10338 10338 10337 10337 10337 10336 10336 10336 10335 10335 10334 10334 10334 10334 10334 10335 10335 10335 10335 10335 10335 10335 10335 10335 10335 10335 10334 10334 10333 10332 10332 10331 10331 10330 10329 10328 10327 10326 10325 10323 10322 10320 10318 10317 10315 10313 10311 10309 10306 10304
10380 10379 10377 10376 10374 10372 10371 10369 10367 10365 10363 10361 10359 10358 10356 10354 10353 10351 10350 10348 10346 10344 10342 10340 10339 10337 10335 10334 10333 10331 10330 10328 10327 10326 10325 10324 10324 10323 10323 10322 10322 10321 10321 10321 10320 10320 10319 10319 10319 10319 10319 10320 10320 10320 10320 10320 10320 10320 10320 10320 10320 10320 10319 10319 10318 10317 10316 10315 10314 10313 10312 10312 10311 10310 10308 10307 10306 10304 10303 10301 10299 10297 10295 10293 10291
10374 10373 10371 10369 10368 10366 10365 10363 10361 10359 10357 10355 10353 10351 10349 10347 10345 10343 10341 10339 10337 10335 10333 10331 10329 10327 10325 10323 10322 10320 10318 10317 10315 10314 10312 10311 10310 10309 10308 10308 10307 10307 10307 10306 10306 10305 10305 10305 10305 10304 10304 10305 10305 10305 10305 10305 10305 10305 10305 10305 10305 10305 10305 10304 10304 10303 10302 10301 10300 10299 10298 10297 10296 10295 10293 10292 10291 10290 10288 10287 10285 10284 10282 10280 10278
10368 10367 10365 10364 10362 10360 10358 10357 10355 10353 10351 10349 10346 10344 10342 10340 10338 10336 10334 10331 10329 10327 10324 10322 10320 10318 10316 10314 10311 10309 10307 10305 10304 10302 10300 10299 10297 10296 10295 10294 10293 10293 10292 10292 10292 10291 10291 10291 10291 10290 10290 10291 10290 10290 10291 10291 10291 10291 10291 10291 10291 10291 10290 10290 10290 10289 10288 10288 10286 10285 10284 10283 10282 10281 10279 10278 10277 10276 10274 10273 10271 10270 10268 10266 10264
10363 10362 10360 10358 10356 10354 10352 10350 10348 10346 10344 10342 10340 10338 10335 10333 10331 10328 10326 10324 10321 10318 10316 10313 10311 10309 10307 10304 10302 10300 10298 10295 10293 10291 10289 10287 10285 10284 10283 10281 10280 10280 10279 10278 10277 10277 10277 10277 10277 10277 10277 10276 10276 10276 10276 10277 10277 10277 10277 10277 10277 10277 10276 10276 10276 10275 10275 10274 10273 10272 10271 10270 10269 10267 10266 10265 10264 10263 10261 10260 10258 10256 10255 10253 10251
10359 10357 10355 10353 10351 10349 10347 10345 10343 10340 10338 10336 10334 10332 10329 10327 10325 10322 10319 10317 10314 10311 10308 10305 10302 10300 10297 10295 10293 10291 10289 10286 10284 10281 10279 10276 10274 10272 10271 10269 10268 10267 10266 10266 10265 10264 10263 10263 10263 10263 10263 10263 10262 10262 10262 10262 10262 10263 10263 10263 10263 10263 10262 10262 10261 10261 10261 10260 10259 10258 10257 10257 10256 10255 10253 10252 10251 10250 10249 10247 10246 10244 10242 10241 10239
10355 10353 10351 10349 10347 10345 10343 10341 10338 10336 10334 10331 10329 10326 10324 10321 10319 10316 10313 10310 10307 10305 10302 10298 10295 10292 10289 10285 10283 10280 10279 10276 10274 10272 10270 10267 10264 10262 10260 10258 10256 10255 10254 10253 10253 10252 10251 10250 10250 10250 10249 10249 10249 10249 10249 10249 10249 10249 10249 10249 10249 10248 10248 10248 10247 10247 10247 10246 10245 10244 10244 10243 10242 10241 10240 10239 10238 10237 10236 10235 10233 10232 10230 10229 10226
10351 10350 10348 10346 10344 10342 10339 10337 10335 10332 10330 10327 10324 10321 10318 10316 10313 10310 10307 10304 10301 10298 10295 10292 10289 10285 10282 10278 10275 10271 10269 10266 10264 10261 10259 10258 10256 10253 10251 10248 10246 10244 10242 10241 10240 10239 10239 10238 10238 10237 10237 10237 10236 10236 10235 10235 10235 10235 10235 10235 10235 10235 10234 10234 10234 10233 10233 10232 10231 10231 10230 10229 10229 10228 10227 10226 10225 10224 10223 10222 10221 10219 10218 10216 10214
10348 10346 10344 10342 10340 10338 10335 10333 10330 10328 10325 10322 10319 10316 10313 10310 10307 10304 10301 10298 10295 10292 10289 10285 10282 10279 10276 10272 10269 10265 10261 10258 10255 10252 10249 10247 10246 10244 10242 10239 10236 10234 10232 10230 10229 10227 10226 10226 10225 10225 10225 10224 10224 10223 10223 10223 10222 10222 10222 10221 10221 10221 10221 10220 10220 10220 10219 10219 10218 10218 10217 10216 10216 10215 10214 10213 10212 10211 10210 10209 10208 10207 10205 10204 10202
10344 10342 10340 10338 10336 10333 10331 10328 10325 10323 10320 10317 10314 10311 10308 10305 10302 10299 10296 10293 10290 10286 10283 10279 10276 10272 10269 10265 10262 10258 10255 10251 10248 10244 10241 10238 10236 10234 10232 10230 10227 10225 10223 10221 10219 10217 10216 10214 10213 10213 10212 10212 10212 10211 10211 10211 10210 10210 10210 10209 10209 10208 10208 10208 10207 10207 10207 10206 10206 10205 10205 10204 10203 10203 10202 10201 10200 10199 10198 10197 10196 10195 10193 10192 10190
10340 10338 10335 10333 10331 10328 10326 10323 10320 10318 10315 10312 10309 10306 10303 10300 10296 10293 10290 10287 10283 10280 10277 10273 10270 10266 10262 10258 10255 10251 10247 10244 10241 10237 10234 10230 10227 10224 10222 10220 10218 10216 10213 10211 10209 10207 10206 10204 10203 10202 10201 10200 10200 10199 10199 10199 10198 10198 10198 10197 10197 10197 10196 10196 10195 10195 10195 10194 10194 10193 10193 10192 10192 10191 10190 10189 10188 10187 10186 10185 10184 10183 10181 10180 10178
10336 10334 10331 10329 10326 10324 10321 10318 10315 10313 10310 10307 10304 10301 10298 10295 10291 10287 10284 10281 10277 10274 10270 10267 10263 10260 10256 10252 10248 10244 10240 10236 10233 10230 10226 10223 10220 10216 10214 10211 10209 10206 10204 10202 10200 10198 10196 10195 10193 10192 10191 10190 10189 10188 10188 10187 10187 10186 10186 10186 10185 10185 10184 10184 10184 10183 10183 10183 10182 10182 10181 10181 10180 10179 10179 10178 10177 10176 10175 10174 10172 10171 10170 10168 10167
10331 10329 10327 10324 10322 10319 10316 10314 10311 10308 10305 10302 10299 10296 10293 10289 10286 10282 10279 10275 10272 10267 10264 10260 10256 10253 10249 10246 10242 10238 10233 10229 10226 10223 10220 10216 10213 10210 10207 10204 10201 10198 10196 10194 10192 10190 10188 10186 10184 10183 10181 10180 10179 10178 10178 10177 10176 10176 10175 10175 10174 10174 10173 10173 10172 10172 10172 10172 10171 10170 10170 10170 10169 10168 10168 10167 10166 10165 10164 10162 10161 10160 10159 10158 10157